| time (UTC) | temp F | wind direction | speed MPH | gust MPH | rain 1hr in | rain 24hr in | rain mn in | humidity % | barometer mb |
| 20260905000005 | 63 | 207 | 5.0 | 9.0 | 0.00 | 0.17 | 0.17 | 76 | 1014.2 |
| 20260904235504 | 64 | 192 | 7.0 | 13.0 | 0.00 | 0.17 | 0.17 | 74 | 1014.0 |
| 20260904235005 | 64 | 199 | 5.0 | 9.0 | 0.00 | 0.17 | 0.17 | 74 | 1014.0 |
| 20260904234505 | 64 | 178 | 6.0 | 10.0 | 0.00 | 0.17 | 0.17 | 73 | 1013.9 |
| 20260904233504 | 65 | 194 | 3.0 | 9.0 | 0.00 | 0.17 | 0.17 | 75 | 1013.9 |
| 20260904233005 | 65 | 245 | 4.0 | 10.0 | 0.00 | 0.17 | 0.17 | 74 | 1013.8 |
| 20260904232505 | 65 | 203 | 3.0 | 8.0 | 0.00 | 0.17 | 0.17 | 73 | 1013.6 |
| 20260904232005 | 65 | 197 | 3.0 | 6.0 | 0.00 | 0.17 | 0.17 | 75 | 1013.6 |
| 20260904231504 | 65 | 201 | 3.0 | 6.0 | 0.00 | 0.17 | 0.17 | 76 | 1013.5 |
| 20260904231004 | 65 | 192 | 2.0 | 7.0 | 0.00 | 0.17 | 0.17 | 74 | 1013.5 |
| 20260904230504 | 65 | 202 | 4.0 | 8.0 | 0.00 | 0.17 | 0.17 | 72 | 1013.5 |
| 20260904225004 | 65 | 173 | 3.0 | 7.0 | 0.00 | 0.17 | 0.17 | 70 | 1013.4 |
| 20260904224504 | 65 | 136 | 3.0 | 5.0 | 0.00 | 0.17 | 0.17 | 68 | 1013.4 |
| 20260904224004 | 65 | 104 | 5.0 | 8.0 | 0.00 | 0.17 | 0.17 | 68 | 1013.4 |
| 20260904223505 | 65 | 173 | 1.0 | 5.0 | 0.00 | 0.17 | 0.17 | 70 | 1013.3 |
| 20260904223004 | 65 | 157 | 2.0 | 5.0 | 0.00 | 0.17 | 0.17 | 70 | 1013.3 |
| 20260904222504 | 65 | 100 | 3.0 | 6.0 | 0.01 | 0.17 | 0.17 | 70 | 1013.3 |
| 20260904222004 | 65 | 152 | 3.0 | 7.0 | 0.01 | 0.17 | 0.17 | 70 | 1013.3 |
| 20260904221505 | 65 | 144 | 2.0 | 5.0 | 0.01 | 0.17 | 0.17 | 71 | 1013.2 |
| 20260904221005 | 66 | 221 | 1.0 | 6.0 | 0.01 | 0.17 | 0.17 | 68 | 1013.3 |
| 20260904220504 | 66 | 131 | 3.0 | 6.0 | 0.01 | 0.17 | 0.17 | 72 | 1013.2 |
| 20260904220004 | 66 | 220 | 1.0 | 5.0 | 0.01 | 0.17 | 0.17 | 73 | 1013.2 |
| 20260904215504 | 66 | 180 | 2.0 | 3.0 | 0.02 | 0.17 | 0.17 | 72 | 1013.2 |
| 20260904215005 | 64 | 212 | 3.0 | 5.0 | 0.02 | 0.17 | 0.17 | 79 | 1013.2 |
| 20260904214505 | 63 | 271 | 2.0 | 3.0 | 0.02 | 0.17 | 0.17 | 78 | 1013.2 |
| 20260904214004 | 62 | 0 | 1.0 | 2.0 | 0.02 | 0.17 | 0.17 | 82 | 1013.2 |
| 20260904213504 | 62 | 268 | 1.0 | 2.0 | 0.02 | 0.17 | 0.17 | 82 | 1013.2 |
| 20260904213005 | 62 | 260 | 1.0 | 2.0 | 0.02 | 0.17 | 0.17 | 83 | 1013.1 |
| 20260904211005 | 62 | 263 | 0.0 | 2.0 | 0.01 | 0.16 | 0.16 | 82 | 1013.1 |
| 20260904210504 | 63 | 263 | 1.0 | 2.0 | 0.01 | 0.16 | 0.16 | 79 | 1013.0 |
| 20260904210005 | 63 | 271 | 1.0 | 1.0 | 0.01 | 0.16 | 0.16 | 77 | 1012.9 |
| 20260904205504 | 63 | 271 | 0.0 | 2.0 | 0.00 | 0.15 | 0.15 | 76 | 1012.9 |
| 20260904204504 | 64 | 333 | 1.0 | 2.0 | 0.00 | 0.16 | 0.15 | 74 | 1012.9 |
| 20260904204004 | 64 | 129 | 0.0 | 3.0 | 0.00 | 0.16 | 0.15 | 73 | 1012.9 |
| 20260904203005 | 64 | 315 | 1.0 | 2.0 | 0.00 | 0.16 | 0.15 | 79 | 1012.9 |
| 20260904202504 | 64 | 5 | 1.0 | 2.0 | 0.00 | 0.16 | 0.15 | 79 | 1013.0 |
| 20260904202005 | 63 | 344 | 1.0 | 2.0 | 0.00 | 0.16 | 0.15 | 81 | 1012.9 |
| 20260904201504 | 62 | 322 | 2.0 | 3.0 | 0.00 | 0.16 | 0.15 | 83 | 1013.0 |
| 20260904200505 | 61 | 235 | 0.0 | 2.0 | 0.00 | 0.17 | 0.15 | 85 | 1013.0 |
| 20260904200005 | 61 | 0 | 2.0 | 3.0 | 0.00 | 0.17 | 0.15 | 84 | 1013.0 |
| 20260904195504 | 61 | 229 | 2.0 | 3.0 | 0.00 | 0.17 | 0.15 | 82 | 1013.1 |
| 20260904195005 | 61 | 254 | 1.0 | 2.0 | 0.00 | 0.18 | 0.15 | 81 | 1013.1 |
| 20260904194505 | 61 | 279 | 1.0 | 2.0 | 0.00 | 0.18 | 0.15 | 81 | 1013.2 |
| 20260904194005 | 61 | 336 | 1.0 | 2.0 | 0.00 | 0.26 | 0.15 | 81 | 1013.2 |
| 20260904193005 | 61 | 353 | 1.0 | 2.0 | 0.00 | 0.29 | 0.15 | 83 | 1013.4 |
| 20260904192504 | 61 | 294 | 0.0 | 2.0 | 0.00 | 0.30 | 0.15 | 83 | 1013.3 |
| 20260904192004 | 61 | 299 | 1.0 | 2.0 | 0.00 | 0.30 | 0.15 | 82 | 1013.4 |
| 20260904191505 | 61 | 334 | 1.0 | 2.0 | 0.00 | 0.30 | 0.15 | 85 | 1013.4 |
| 20260904191004 | 60 | 349 | 1.0 | 2.0 | 0.00 | 0.30 | 0.15 | 85 | 1013.4 |
| 20260904190505 | 60 | 322 | 1.0 | 2.0 | 0.00 | 0.31 | 0.15 | 86 | 1013.4 |
| 20260904190004 | 59 | 316 | 1.0 | 3.0 | 0.00 | 0.31 | 0.15 | 86 | 1013.4 |
| 20260904185505 | 59 | 325 | 2.0 | 3.0 | 0.00 | 0.31 | 0.15 | 87 | 1013.5 |
| 20260904185005 | 59 | 336 | 1.0 | 2.0 | 0.00 | 0.31 | 0.15 | 87 | 1013.5 |
| 20260904183504 | 58 | 333 | 1.0 | 3.0 | 0.00 | 0.32 | 0.15 | 87 | 1013.4 |
| 20260904183004 | 59 | 12 | 1.0 | 2.0 | 0.00 | 0.32 | 0.15 | 87 | 1013.4 |
| 20260904182504 | 59 | 23 | 1.0 | 2.0 | 0.00 | 0.33 | 0.15 | 87 | 1013.4 |
| 20260904182005 | 58 | 331 | 1.0 | 2.0 | 0.00 | 0.33 | 0.15 | 88 | 1013.3 |
| 20260904181504 | 58 | 21 | 2.0 | 2.0 | 0.00 | 0.33 | 0.15 | 88 | 1013.2 |
| 20260904181004 | 58 | 16 | 1.0 | 2.0 | 0.00 | 0.33 | 0.15 | 88 | 1013.2 |
| 20260904175005 | 58 | 309 | 2.0 | 3.0 | 0.00 | 0.33 | 0.15 | 89 | 1013.0 |
| 20260904174504 | 57 | 0 | 1.0 | 2.0 | 0.00 | 0.33 | 0.15 | 90 | 1013.0 |
| 20260904174004 | 57 | 3 | 1.0 | 3.0 | 0.00 | 0.33 | 0.15 | 90 | 1013.0 |
| 20260904173504 | 56 | 16 | 2.0 | 3.0 | 0.01 | 0.33 | 0.15 | 90 | 1013.0 |
| 20260904173004 | 56 | 296 | 2.0 | 3.0 | 0.01 | 0.33 | 0.15 | 90 | 1012.9 |
| 20260904172504 | 56 | 334 | 1.0 | 2.0 | 0.01 | 0.33 | 0.15 | 90 | 1013.0 |
| 20260904172004 | 56 | 325 | 1.0 | 2.0 | 0.01 | 0.33 | 0.15 | 91 | 1013.0 |
| 20260904171504 | 56 | 323 | 1.0 | 2.0 | 0.01 | 0.33 | 0.15 | 91 | 1012.9 |
| 20260904171004 | 56 | 334 | 1.0 | 2.0 | 0.01 | 0.33 | 0.15 | 91 | 1012.8 |
| 20260904170504 | 56 | 304 | 1.0 | 2.0 | 0.01 | 0.33 | 0.15 | 91 | 1012.9 |
| 20260904170004 | 56 | 318 | 1.0 | 2.0 | 0.01 | 0.33 | 0.15 | 91 | 1012.9 |
| 20260904165505 | 55 | 336 | 1.0 | 2.0 | 0.01 | 0.34 | 0.15 | 91 | 1012.9 |
| 20260904165005 | 55 | 331 | 2.0 | 2.0 | 0.01 | 0.34 | 0.15 | 91 | 1012.9 |
| 20260904164504 | 55 | 351 | 1.0 | 2.0 | 0.01 | 0.34 | 0.15 | 91 | 1012.8 |
| 20260904164004 | 55 | 0 | 1.0 | 2.0 | 0.01 | 0.34 | 0.15 | 91 | 1012.7 |
| 20260904163004 | 55 | 0 | 0.0 | 2.0 | 0.00 | 0.33 | 0.14 | 91 | 1012.9 |
| 20260904162504 | 55 | 0 | 1.0 | 2.0 | 0.00 | 0.33 | 0.14 | 91 | 1012.8 |
| 20260904162005 | 55 | 353 | 1.0 | 2.0 | 0.00 | 0.33 | 0.14 | 91 | 1012.7 |
| 20260904161005 | 55 | 235 | 0.0 | 2.0 | 0.00 | 0.33 | 0.14 | 91 | 1012.7 |
| 20260904160504 | 55 | 235 | 0.0 | 2.0 | 0.00 | 0.33 | 0.14 | 91 | 1012.6 |
| 20260904160005 | 55 | 236 | 0.0 | 2.0 | 0.00 | 0.33 | 0.14 | 91 | 1012.6 |
| 20260904155504 | 55 | 236 | 1.0 | 1.0 | 0.00 | 0.33 | 0.14 | 91 | 1012.6 |
| 20260904155005 | 55 | 236 | 0.0 | 2.0 | 0.00 | 0.33 | 0.14 | 91 | 1012.6 |
| 20260904154505 | 55 | 236 | 0.0 | 2.0 | 0.00 | 0.33 | 0.14 | 91 | 1012.6 |
| 20260904154005 | 55 | 236 | 0.0 | 2.0 | 0.00 | 0.33 | 0.14 | 91 | 1012.6 |
| 20260904153504 | 55 | 236 | 0.0 | 1.0 | 0.00 | 0.33 | 0.14 | 91 | 1012.6 |
| 20260904153005 | 55 | 236 | 0.0 | 2.0 | 0.00 | 0.33 | 0.14 | 91 | 1012.5 |
| 20260904152504 | 55 | 236 | 1.0 | 2.0 | 0.00 | 0.33 | 0.14 | 91 | 1012.4 |
| 20260904152004 | 55 | 236 | 1.0 | 1.0 | 0.00 | 0.34 | 0.14 | 91 | 1012.4 |
| 20260904151005 | 54 | 314 | 0.0 | 1.0 | 0.00 | 0.35 | 0.14 | 91 | 1012.3 |
| 20260904150504 | 54 | 315 | 0.0 | 2.0 | 0.00 | 0.36 | 0.14 | 91 | 1012.2 |
| 20260904150005 | 54 | 315 | 1.0 | 2.0 | 0.00 | 0.37 | 0.14 | 91 | 1012.1 |
| 20260904145505 | 54 | 315 | 0.0 | 2.0 | 0.00 | 0.38 | 0.14 | 91 | 1012.0 |
| 20260904144504 | 54 | 315 | 1.0 | 2.0 | 0.00 | 0.39 | 0.14 | 91 | 1011.9 |
| 20260904144004 | 54 | 331 | 0.0 | 0.0 | 0.00 | 0.39 | 0.14 | 91 | 1011.9 |
| 20260904143004 | 54 | 331 | 0.0 | 2.0 | 0.00 | 0.40 | 0.14 | 91 | 1011.8 |
| 20260904141504 | 54 | 300 | 0.0 | 1.0 | 0.02 | 0.41 | 0.14 | 91 | 1011.7 |
| 20260904140004 | 54 | 300 | 1.0 | 2.0 | 0.04 | 0.42 | 0.14 | 91 | 1011.5 |
| 20260904135505 | 54 | 300 | 0.0 | 2.0 | 0.04 | 0.42 | 0.14 | 91 | 1011.4 |
| 20260904135004 | 54 | 300 | 0.0 | 2.0 | 0.04 | 0.42 | 0.14 | 91 | 1011.4 |
| 20260904134504 | 54 | 327 | 0.0 | 2.0 | 0.05 | 0.43 | 0.14 | 91 | 1011.3 |
| 20260904134005 | 54 | 331 | 0.0 | 2.0 | 0.06 | 0.44 | 0.14 | 91 | 1011.3 |
| 20260904133004 | 54 | 5 | 1.0 | 2.0 | 0.07 | 0.44 | 0.14 | 91 | 1011.2 |
| 20260904132504 | 54 | 254 | 0.0 | 2.0 | 0.07 | 0.44 | 0.13 | 91 | 1011.3 |
| 20260904132005 | 54 | 254 | 1.0 | 2.0 | 0.07 | 0.46 | 0.12 | 91 | 1011.3 |
| 20260904131504 | 54 | 351 | 0.0 | 2.0 | 0.08 | 0.48 | 0.12 | 91 | 1011.2 |
| 20260904130004 | 54 | 9 | 1.0 | 2.0 | 0.08 | 0.46 | 0.10 | 91 | 1011.1 |
| 20260904125004 | 54 | 18 | 1.0 | 2.0 | 0.09 | 0.46 | 0.10 | 91 | 1011.0 |
| 20260904124504 | 54 | 18 | 1.0 | 2.0 | 0.08 | 0.45 | 0.09 | 91 | 1011.0 |
| 20260904124004 | 54 | 18 | 1.0 | 2.0 | 0.07 | 0.44 | 0.08 | 91 | 1011.1 |
| 20260904123005 | 54 | 18 | 1.0 | 2.0 | 0.06 | 0.48 | 0.07 | 91 | 1010.9 |
| 20260904122005 | 54 | 18 | 0.0 | 0.0 | 0.04 | 0.47 | 0.05 | 91 | 1010.9 |
| 20260904121004 | 54 | 18 | 0.0 | 0.0 | 0.02 | 0.46 | 0.03 | 91 | 1010.9 |
| 20260904120504 | 54 | 18 | 0.0 | 0.0 | 0.01 | 0.46 | 0.02 | 91 | 1010.9 |
| 20260904120004 | 54 | 18 | 0.0 | 1.0 | 0.02 | 0.47 | 0.02 | 91 | 1010.9 |
| 20260904115505 | 54 | 18 | 0.0 | 1.0 | 0.01 | 0.46 | 0.01 | 91 | 1010.8 |
| 20260904115004 | 54 | 18 | 0.0 | 2.0 | 0.01 | 0.47 | 0.01 | 91 | 1010.8 |
| 20260904114504 | 54 | 18 | 1.0 | 2.0 | 0.01 | 0.47 | 0.01 | 91 | 1010.7 |
| 20260904114004 | 54 | 18 | 1.0 | 2.0 | 0.01 | 0.48 | 0.01 | 91 | 1010.7 |
| 20260904113504 | 54 | 18 | 1.0 | 2.0 | 0.01 | 0.48 | 0.01 | 91 | 1010.6 |
| 20260904113004 | 54 | 17 | 1.0 | 2.0 | 0.01 | 0.49 | 0.01 | 90 | 1010.6 |
| 20260904112504 | 54 | 219 | 0.0 | 2.0 | 0.01 | 0.49 | 0.01 | 90 | 1010.6 |
| 20260904112004 | 54 | 219 | 0.0 | 2.0 | 0.01 | 0.49 | 0.01 | 90 | 1010.5 |
| 20260904111505 | 53 | 219 | 0.0 | 1.0 | 0.01 | 0.49 | 0.01 | 90 | 1010.5 |
| 20260904111004 | 53 | 219 | 0.0 | 1.0 | 0.01 | 0.49 | 0.01 | 90 | 1010.5 |
| 20260904110004 | 53 | 219 | 0.0 | 0.0 | 0.00 | 0.48 | 0.00 | 90 | 1010.5 |
| 20260904105504 | 53 | 219 | 0.0 | 2.0 | 0.00 | 0.48 | 0.00 | 90 | 1010.4 |
| 20260904105004 | 53 | 219 | 1.0 | 1.0 | 0.00 | 0.48 | 0.00 | 90 | 1010.4 |
| 20260904104504 | 53 | 219 | 0.0 | 2.0 | 0.00 | 0.48 | 0.00 | 90 | 1010.4 |
| 20260904104004 | 53 | 219 | 0.0 | 0.0 | 0.00 | 0.48 | 0.00 | 90 | 1010.4 |
| 20260904103505 | 53 | 219 | 0.0 | 2.0 | 0.00 | 0.48 | 0.00 | 90 | 1010.3 |
| 20260904103005 | 53 | 219 | 0.0 | 2.0 | 0.00 | 0.48 | 0.00 | 90 | 1010.3 |
| 20260904102504 | 53 | 219 | 0.0 | 2.0 | 0.00 | 0.48 | 0.00 | 90 | 1010.3 |
| 20260904102004 | 53 | 219 | 1.0 | 2.0 | 0.00 | 0.48 | 0.00 | 90 | 1010.3 |
| 20260904101504 | 53 | 219 | 1.0 | 1.0 | 0.00 | 0.48 | 0.00 | 90 | 1010.4 |
| 20260904101004 | 53 | 219 | 1.0 | 2.0 | 0.00 | 0.48 | 0.00 | 90 | 1010.3 |
| 20260904100504 | 53 | 196 | 1.0 | 2.0 | 0.00 | 0.48 | 0.00 | 90 | 1010.3 |
| 20260904100004 | 53 | 242 | 1.0 | 1.0 | 0.00 | 0.48 | 0.00 | 90 | 1010.3 |
| 20260904095504 | 53 | 242 | 1.0 | 2.0 | 0.00 | 0.48 | 0.00 | 90 | 1010.2 |
| 20260904095004 | 53 | 242 | 0.0 | 2.0 | 0.00 | 0.48 | 0.00 | 90 | 1010.1 |
| 20260904094504 | 53 | 242 | 1.0 | 2.0 | 0.00 | 0.48 | 0.00 | 90 | 1010.1 |
| 20260904094004 | 53 | 242 | 0.0 | 2.0 | 0.00 | 0.48 | 0.00 | 90 | 1010.0 |
| 20260904093504 | 53 | 242 | 0.0 | 2.0 | 0.00 | 0.48 | 0.00 | 90 | 1010.0 |
| 20260904093005 | 54 | 242 | 0.0 | 2.0 | 0.00 | 0.48 | 0.00 | 90 | 1010.0 |
| 20260904092504 | 54 | 242 | 1.0 | 1.0 | 0.00 | 0.48 | 0.00 | 90 | 1009.9 |
| 20260904092005 | 54 | 242 | 1.0 | 2.0 | 0.00 | 0.48 | 0.00 | 90 | 1009.9 |
| 20260904091504 | 54 | 242 | 0.0 | 2.0 | 0.00 | 0.48 | 0.00 | 90 | 1009.9 |
| 20260904091004 | 54 | 241 | 1.0 | 1.0 | 0.00 | 0.48 | 0.00 | 90 | 1009.9 |
| 20260904090504 | 54 | 253 | 1.0 | 1.0 | 0.00 | 0.48 | 0.00 | 90 | 1010.0 |
| 20260904090004 | 54 | 264 | 1.0 | 2.0 | 0.00 | 0.48 | 0.00 | 90 | 1010.0 |
| 20260904085504 | 54 | 317 | 0.0 | 1.0 | 0.00 | 0.48 | 0.00 | 89 | 1010.0 |
| 20260904085004 | 54 | 242 | 0.0 | 0.0 | 0.00 | 0.48 | 0.00 | 90 | 1010.0 |
| 20260904083504 | 55 | 0 | 0.0 | 2.0 | 0.00 | 0.48 | 0.00 | 89 | 1009.9 |
| 20260904083005 | 55 | 335 | 1.0 | 2.0 | 0.00 | 0.48 | 0.00 | 89 | 1010.0 |
| 20260904081504 | 55 | 0 | 2.0 | 2.0 | 0.00 | 0.48 | 0.00 | 89 | 1010.0 |
| 20260904081004 | 55 | 224 | 0.0 | 2.0 | 0.00 | 0.48 | 0.00 | 89 | 1010.0 |
| 20260904080504 | 55 | 244 | 1.0 | 2.0 | 0.00 | 0.48 | 0.00 | 89 | 1010.0 |
| 20260904075004 | 56 | 0 | 1.0 | 1.0 | 0.00 | 0.48 | 0.00 | 89 | 1009.9 |
| 20260904074504 | 56 | 26 | 0.0 | 1.0 | 0.00 | 0.48 | 0.00 | 89 | 1010.0 |
| 20260904074004 | 56 | 27 | 0.0 | 0.0 | 0.00 | 0.48 | 0.00 | 89 | 1009.9 |
| 20260904072504 | 56 | 0 | 0.0 | 1.0 | 0.00 | 0.48 | 0.00 | 89 | 1009.9 |
| 20260904072005 | 56 | 28 | 0.0 | 2.0 | 0.00 | 0.48 | 0.00 | 89 | 1009.9 |
| 20260904071505 | 56 | 27 | 0.0 | 2.0 | 0.00 | 0.48 | 0.00 | 89 | 1009.9 |
| 20260904071004 | 56 | 0 | 1.0 | 1.0 | 0.00 | 0.48 | 0.00 | 89 | 1009.9 |
| 20260904070504 | 56 | 0 | 2.0 | 2.0 | 0.00 | 0.48 | 0.00 | 90 | 1009.9 |
| 20260904070004 | 55 | 0 | 1.0 | 2.0 | 0.00 | 0.48 | 0.00 | 90 | 1009.8 |
| 20260904065504 | 55 | 236 | 0.0 | 0.0 | 0.00 | 0.48 | 0.48 | 90 | 1009.8 |
| 20260904065004 | 55 | 236 | 0.0 | 0.0 | 0.00 | 0.48 | 0.48 | 89 | 1009.8 |
| 20260904064504 | 55 | 236 | 0.0 | 0.0 | 0.00 | 0.48 | 0.48 | 90 | 1009.8 |
| 20260904064004 | 55 | 236 | 0.0 | 0.0 | 0.00 | 0.48 | 0.48 | 89 | 1009.8 |
| 20260904063504 | 55 | 236 | 0.0 | 0.0 | 0.00 | 0.48 | 0.48 | 89 | 1009.9 |
| 20260904062504 | 55 | 236 | 0.0 | 0.0 | 0.00 | 0.48 | 0.48 | 89 | 1009.9 |
| 20260904062004 | 55 | 236 | 0.0 | 0.0 | 0.00 | 0.48 | 0.48 | 89 | 1009.9 |
| 20260904061504 | 55 | 236 | 0.0 | 2.0 | 0.00 | 0.48 | 0.48 | 89 | 1009.9 |
| 20260904061004 | 55 | 0 | 0.0 | 0.0 | 0.00 | 0.48 | 0.48 | 89 | 1010.0 |
| 20260904055503 | 55 | 0 | 0.0 | 2.0 | 0.00 | 0.48 | 0.48 | 89 | 1009.9 |
| 20260904055004 | 56 | 0 | 0.0 | 1.0 | 0.00 | 0.48 | 0.48 | 88 | 1009.9 |
| 20260904054504 | 56 | 241 | 1.0 | 2.0 | 0.00 | 0.48 | 0.48 | 88 | 1009.9 |
| 20260904054004 | 56 | 287 | 1.0 | 2.0 | 0.00 | 0.48 | 0.48 | 88 | 1009.9 |
| 20260904053004 | 56 | 236 | 0.0 | 2.0 | 0.00 | 0.48 | 0.48 | 89 | 1009.9 |
| 20260904052504 | 56 | 356 | 1.0 | 1.0 | 0.00 | 0.48 | 0.48 | 89 | 1010.0 |
| 20260904051504 | 56 | 0 | 0.0 | 0.0 | 0.00 | 0.48 | 0.48 | 89 | 1010.0 |
| 20260904051005 | 56 | 0 | 0.0 | 2.0 | 0.00 | 0.48 | 0.48 | 88 | 1010.1 |
| 20260904050504 | 56 | 0 | 1.0 | 2.0 | 0.00 | 0.48 | 0.48 | 88 | 1010.1 |
| 20260904050004 | 56 | 236 | 1.0 | 1.0 | 0.00 | 0.48 | 0.48 | 88 | 1010.0 |
| 20260904045504 | 56 | 236 | 1.0 | 2.0 | 0.00 | 0.48 | 0.48 | 88 | 1010.0 |
| 20260904044004 | 56 | 155 | 0.0 | 1.0 | 0.00 | 0.48 | 0.48 | 88 | 1010.0 |
| 20260904043503 | 57 | 155 | 0.0 | 1.0 | 0.00 | 0.48 | 0.48 | 88 | 1009.9 |
| 20260904043004 | 57 | 155 | 0.0 | 2.0 | 0.00 | 0.48 | 0.48 | 88 | 1010.0 |
| 20260904042504 | 57 | 155 | 1.0 | 2.0 | 0.00 | 0.48 | 0.48 | 88 | 1009.9 |
| 20260904042004 | 57 | 152 | 2.0 | 3.0 | 0.00 | 0.48 | 0.48 | 88 | 1009.9 |
| 20260904041504 | 57 | 173 | 0.0 | 2.0 | 0.00 | 0.48 | 0.48 | 87 | 1010.0 |
| 20260904041004 | 57 | 152 | 1.0 | 2.0 | 0.00 | 0.48 | 0.48 | 87 | 1010.0 |
| 20260904040504 | 57 | 0 | 0.0 | 1.0 | 0.00 | 0.48 | 0.48 | 87 | 1010.0 |
| 20260904040004 | 57 | 0 | 0.0 | 1.0 | 0.00 | 0.48 | 0.48 | 87 | 1010.0 |
| 20260904035504 | 57 | 236 | 1.0 | 2.0 | 0.00 | 0.48 | 0.48 | 87 | 1009.9 |
| 20260904034504 | 57 | 212 | 0.0 | 2.0 | 0.00 | 0.48 | 0.48 | 87 | 1009.8 |
| 20260904034004 | 57 | 0 | 0.0 | 2.0 | 0.00 | 0.48 | 0.48 | 86 | 1009.7 |
| 20260904033504 | 57 | 212 | 0.0 | 2.0 | 0.00 | 0.48 | 0.48 | 86 | 1009.7 |
| 20260904033004 | 57 | 212 | 0.0 | 2.0 | 0.00 | 0.48 | 0.48 | 86 | 1009.6 |
| 20260904032004 | 58 | 332 | 1.0 | 2.0 | 0.00 | 0.48 | 0.48 | 85 | 1009.5 |
| 20260904031504 | 58 | 325 | 0.0 | 2.0 | 0.00 | 0.48 | 0.48 | 85 | 1009.6 |
| 20260904030004 | 58 | 358 | 1.0 | 1.0 | 0.00 | 0.48 | 0.48 | 84 | 1009.4 |
| 20260904025504 | 58 | 357 | 0.0 | 2.0 | 0.00 | 0.48 | 0.48 | 84 | 1009.4 |
| 20260904025004 | 58 | 358 | 1.0 | 2.0 | 0.00 | 0.48 | 0.48 | 83 | 1009.4 |
| 20260904024504 | 58 | 330 | 2.0 | 3.0 | 0.00 | 0.48 | 0.48 | 82 | 1009.4 |
| 20260904024004 | 59 | 353 | 2.0 | 2.0 | 0.00 | 0.48 | 0.48 | 81 | 1009.3 |
| 20260904023504 | 59 | 218 | 1.0 | 5.0 | 0.00 | 0.48 | 0.48 | 81 | 1009.3 |
| 20260904022503 | 59 | 326 | 1.0 | 3.0 | 0.00 | 0.48 | 0.48 | 79 | 1009.1 |
| 20260904022004 | 60 | 355 | 2.0 | 5.0 | 0.00 | 0.48 | 0.48 | 79 | 1009.2 |
| 20260904021504 | 60 | 194 | 3.0 | 5.0 | 0.00 | 0.48 | 0.48 | 79 | 1009.2 |
| 20260904021004 | 60 | 187 | 2.0 | 5.0 | 0.00 | 0.48 | 0.48 | 77 | 1009.2 |
| 20260904020504 | 60 | 346 | 3.0 | 6.0 | 0.00 | 0.48 | 0.48 | 77 | 1009.2 |
| 20260904020004 | 60 | 199 | 1.0 | 5.0 | 0.00 | 0.48 | 0.48 | 77 | 1009.2 |
| 20260904015504 | 60 | 0 | 1.0 | 5.0 | 0.00 | 0.48 | 0.48 | 77 | 1009.2 |
| 20260904015004 | 60 | 47 | 3.0 | 6.0 | 0.00 | 0.48 | 0.48 | 76 | 1009.3 |
| 20260904014503 | 60 | 194 | 3.0 | 6.0 | 0.00 | 0.48 | 0.48 | 76 | 1009.2 |
| 20260904014004 | 60 | 182 | 3.0 | 6.0 | 0.00 | 0.48 | 0.48 | 76 | 1009.3 |
| 20260904013504 | 60 | 169 | 3.0 | 8.0 | 0.00 | 0.48 | 0.48 | 75 | 1009.2 |
| 20260904013004 | 60 | 183 | 3.0 | 8.0 | 0.00 | 0.48 | 0.48 | 75 | 1009.2 |
| 20260904012504 | 61 | 181 | 6.0 | 10.0 | 0.00 | 0.48 | 0.48 | 75 | 1009.2 |
| 20260904012004 | 61 | 170 | 5.0 | 8.0 | 0.00 | 0.48 | 0.48 | 75 | 1009.2 |
| 20260904011505 | 61 | 152 | 5.0 | 9.0 | 0.00 | 0.48 | 0.48 | 74 | 1009.2 |
| 20260904010505 | 62 | 181 | 4.0 | 7.0 | 0.00 | 0.49 | 0.48 | 73 | 1009.1 |
| 20260904010006 | 62 | 215 | 2.0 | 7.0 | 0.00 | 0.49 | 0.48 | 72 | 1009.0 |
| 20260904005505 | 62 | 15 | 5.0 | 8.0 | 0.00 | 0.49 | 0.48 | 71 | 1009.1 |
| 20260904004505 | 62 | 210 | 6.0 | 9.0 | 0.00 | 0.49 | 0.48 | 71 | 1009.1 |
| 20260904003505 | 62 | 251 | 5.0 | 10.0 | 0.00 | 0.49 | 0.48 | 71 | 1009.2 |
| 20260904003005 | 63 | 132 | 7.0 | 12.0 | 0.00 | 0.49 | 0.48 | 71 | 1009.2 |
| 20260904002505 | 63 | 184 | 7.0 | 12.0 | 0.00 | 0.49 | 0.48 | 69 | 1009.2 |
| 20260904002005 | 64 | 171 | 7.0 | 13.0 | 0.00 | 0.49 | 0.48 | 69 | 1009.2 |
| 20260904001505 | 64 | 0 | 10.0 | 14.0 | 0.00 | 0.49 | 0.48 | 69 | 1009.2 |
| 20260904001006 | 64 | 200 | 8.0 | 14.0 | 0.00 | 0.49 | 0.48 | 68 | 1009.1 |
| 20260904000505 | 64 | 174 | 7.0 | 14.0 | 0.00 | 0.49 | 0.48 | 68 | 1009.1 |